TIME,DELAY(SENSOR),PRES,OXYGEN,RAWTEMP,T(OPTODE),TCPHASE,FLUOR,BETA(BETA700),BETA(BETA412),BETA(BETA440),CDOM,C(CSC),ED(ED411.90),ED(ED443.80),ED(ED489.40),ED(ED554.70),LU(LU412.20),LU(LU443.80),LU(LU489.40),LU(LU555.00),COMP,TILTX,TILTY,CHECK
1351894112,5805,891.7100219726562000,168.2490997314453000,451.7351989746094000,9.3836145401000980,39.7680091857910160,50,102,63,70,55,1799,2147454464,2147790171,2147574006,2147827328,2147305718,2147458706,2147751250,2148273243,776,6,14,36553
1351897708,5803,9.3000001907348630,207.3271026611328000,520.8079223632812000,7.2272939682006840,38.3881912231445300,50,101,63,69,53,1794,2147441133,2147792749,2147581019,2147831670,2147305572,2147455670,2147763200,2148282230,2539,6,14,55594
1351901308,5805,1061.0000000000000000,214.5807952880859400,527.3831176757812000,7.0203652381896970,38.0821990966796900,50,101,64,69,53,1794,2147440137,2147793984,2147582829,2147835099,2147305298,2147450057,2147763529,2148284516,1316,6,15,14411
1351904908,5806,1222.0000000000000000,215.7621002197265600,529.0734863281250000,6.9671101570129395,38.0444908142089840,50,100,63,69,53,1792,2147436269,2147797348,2147583003,2147832475,2147304530,2147448630,2147765897,2148282267,75,6,14,49889
1351908508,5804,12.8000001907348630,216.5532073974609400,529.3831176757812000,6.9573569297790530,38.0047302246093750,50,101,63,69,53,1791,2147438171,2147795273,2147580882,2147831076,2147302893,2147448475,2147764873,2148279241,3129,6,15,10054
1351912108,5803,13.5000000000000000,216.7642974853515600,529.1497192382812000,6.9647121429443360,37.9888000488281250,50,100,63,70,53,1790,2147434459,2147799140,2147582281,2147833828,2147306102,2147448914,2147764690,2148279780,3441,6,15,13176
1351915708,5804,1351.0000000000000000,216.4589996337890600,529.3914794921875000,6.9570918083190920,38.0100212097168000,50,101,62,69,52,1787,2147438427,2147796918,2147580598,2147833362,2147305654,2147452955,2147767250,2148277924,3109,6,14,31457
1351919308,5803,10.6999998092651370,216.6647033691406200,530.5073852539062000,6.9219207763671875,38.0182800292968750,50,101,63,71,54,1784,2147434294,2147798080,2147583012,2147830573,2147304173,2147453257,2147765586,2148276699,3566,6,15,53098
1351922908,5805,13.6999998092651370,215.7386932373047000,528.0313110351562000,6.9999470710754395,38.0268898010253900,50,100,63,70,53,1781,2147437394,2147797906,2147583899,2147832356,2147305298,2147455689,2147765540,2148276635,12,6,14,59465
1351926508,5804,1226.0000000000000000,216.5489044189453000,530.2346191406250000,6.9305210113525390,38.0204010009765600,50,100,63,68,52,1782,2147440347,2147797138,2147585344,2147830253,2147305499,2147449920,2147766784,2148276059,3235,6,15,21137
1351930108,5804,1213.0000000000000000,217.1705017089843800,530.7708740234375000,6.9136161804199220,37.9940681457519500,50,101,61,69,52,1779,2147435529,2147795008,2147582564,2147832822,2147304996,2147450971,2147762249,2148278564,2778,6,15,45256
1351933708,5803,1026.0000000000000000,218.5792999267578000,531.7443847656250000,6.8829269409179690,37.9325599670410160,50,101,62,68,53,1773,2147436781,2147800987,2147582098,2147831579,2147306029,2147453842,2147762742,2148281225,181,6,14,6132
1351937308,5802,10.3999996185302730,218.0693969726562500,531.8621826171875000,6.8792147636413570,37.9629402160644500,50,100,62,70,53,1771,2147434121,2147801088,2147579355,2147832941,2147304749,2147451785,2147768182,2148280192,3117,6,14,7379
1351940908,5805,74.0000000000000000,218.6965026855468800,532.4348144531250000,6.8611598014831540,37.9381599426269500,50,100,63,69,54,1771,2147434569,2147799707,2147584448,2147830829,2147304758,2147448886,2147764470,2148282203,170,6,14,36100
1351944508,5806,1073.0000000000000000,217.1286926269531200,531.1381225585938000,6.9020419120788570,38.0034599304199200,50,103,63,67,52,1772,2147435547,2147795264,2147581924,2147830390,2147307648,2147450806,2147765494,2148280027,3476,6,14,33146
1351948108,5805,10.8999996185302730,216.7899932861328000,530.4061279296875000,6.9251170158386230,38.0092887878418000,50,99,62,70,53,1769,2147438208,2147797485,2147582189,2147830994,2147306934,2147451190,2147765805,2148279488,108,6,14,1277
1351951708,5805,1290.0000000000000000,217.3518981933593800,530.4855957031250000,6.9226088523864750,37.9793510437011700,50,102,62,71,53,1772,2147439067,2147797421,2147584950,2147832502,2147304566,2147450889,2147768393,2148278893,314,6,14,32484
1351955308,5805,12.8000001907348630,216.0991058349609400,530.7722167968750000,6.9135761260986330,38.0555000305175800,50,102,63,69,54,1772,2147436928,2147797284,2147581686,2147831972,2147304777,2147447990,2147766354,2148279497,3375,6,14,65174
1351958908,5804,13.1999998092651370,217.1737976074218800,531.2567138671875000,6.8983058929443360,38.0028190612793000,50,102,64,69,53,1772,2147437522,2147796708,2147583634,2147831332,2147306834,2147448146,2147768000,2148283346,3376,6,15,38102
1351962508,5802,1094.0000000000000000,215.2637023925781200,530.3358154296875000,6.9273319244384770,38.0947914123535160,50,100,63,70,52,1772,2147439442,2147795657,2147584996,2147830427,2147303981,2147451108,2147768722,2148279286,3396,6,15,42393
1351966108,5804,13.1000003814697270,215.7828063964843800,530.3967895507812000,6.9254088401794430,38.0664787292480500,50,101,63,70,54,1769,2147438848,2147800722,2147584036,2147831552,2147306660,2147449252,2147766985,2148280996,3471,6,15,15906
1351969708,5804,13.6000003814697270,214.8475952148437500,531.1663818359375000,6.9011502265930180,38.1341896057128900,51,432,62,71,52,1773,2147437293,2147796178,2147581650,2147833481,2147304082,2147450121,2147769124,2148277760,216,6,15,51363
1351973308,5806,13.1000003814697270,215.4671020507812500,530.2576293945312000,6.9297962188720700,38.0820503234863300,50,100,62,70,52,1773,2147435017,2147797750,2147581824,2147831360,2147304804,2147453869,2147766820,2148280210,348,6,14,3528
1351976908,5806,11.3000001907348630,212.0372009277343800,525.1912841796875000,7.0893778800964355,38.1893997192382800,50,102,63,69,52,1778,2147441435,2147794688,2147585462,2147833947,2147306624,2147454528,2147766345,2148280347,48,6,14,27663
1351980508,5805,11.1000003814697270,209.8177032470703000,524.2769165039062000,7.1181597709655760,38.3031997680664060,50,101,62,69,54,1778,2147436690,2147798848,2147581248,2147829952,2147307940,2147455021,2147766738,2148280969,153,6,14,1655
1351984108,5804,1065.0000000000000000,209.2799987792968800,523.9249877929688000,7.1292319297790530,38.3282318115234400,50,99,63,70,52,1776,2147440978,2147796708,2147585188,2147831588,2147305965,2147452288,2147766464,2148279917,3501,6,14,21943
1351987708,5805,10.8999996185302730,208.3486022949218800,523.4752197265625000,7.1433892250061035,38.3751792907714840,50,100,62,69,53,1780,2147439122,2147795099,2147581476,2147830573,2147306560,2147451757,2147766153,2148277906,114,6,14,21166
1351991308,5807,1135.0000000000000000,208.3594055175781200,523.0897827148438000,7.1555161476135250,38.3679504394531250,50,102,63,69,53,1780,2147441627,2147795465,2147580909,2147832009,2147309824,2147453613,2147769700,2148279808,38,6,14,11215
1351994908,5801,1158.0000000000000000,208.6634063720703000,523.5548706054688000,7.1408791542053220,38.3575897216796900,50,102,63,71,53,1780,2147436388,2147798217,2147581906,2147832868,2147305910,2147451593,2147769773,2148281462,294,6,14,52514
1351998508,5805,1154.0000000000000000,210.5054016113281200,523.3729248046875000,7.1466059684753420,38.2464103698730500,50,100,63,68,52,1780,2147440027,2147797851,2147581366,2147829686,2147307264,2147449764,2147764059,2148276434,286,6,14,8106
1352002108,5806,11.1999998092651370,208.4461975097656200,523.1992187500000000,7.1520748138427730,38.3646392822265600,50,100,62,70,53,1777,2147439387,2147795620,2147583588,2147830848,2147306176,2147450761,2147763291,2148281645,279,6,15,58013
1352005708,5802,11.8999996185302730,211.1390991210937500,524.2711181640625000,7.1183409690856930,38.2252998352050800,50,108,62,68,53,1773,2147438016,2147795702,2147582134,2147829476,2147308086,2147454281,2147765440,2148281243,3481,6,14,5782
1352009308,5804,10.1000003814697270,210.1770019531250000,523.4697875976562000,7.1435589790344240,38.2671813964843750,50,103,63,69,53,1772,2147437659,2147796708,2147583853,2147830354,2147303835,2147450761,2147768594,2148278445,29,6,14,50635
1352012908,5802,1014.0000000000000000,209.5614013671875000,524.9224243164062000,7.0978431701660160,38.3290596008300800,50,101,63,69,54,1771,2147436726,2147797604,2147583990,2147829641,2147305645,2147450221,2147765924,2148282505,3554,6,15,65441
1352016508,5805,1078.0000000000000000,210.2082977294922000,523.3245239257812000,7.1481299400329590,38.2633514404296900,50,99,65,68,52,1770,2147437302,2147796882,2147582619,2147830601,2147306221,2147456082,2147762797,2148281088,3425,6,14,14519
1352020108,5804,11.0000000000000000,211.4566955566406200,525.1787719726562000,7.0897707939147950,38.2227897644043000,50,103,63,69,53,1769,2147440722,2147795712,2147583771,2147824265,2147303478,2147451940,2147764635,2148280265,3456,6,14,49872
1352023708,5805,11.0000000000000000,211.9235992431640600,525.4199829101562000,7.0821762084960940,38.1996803283691400,50,100,63,69,52,1770,2147441243,2147796169,2147583341,2147830802,2147303826,2147454381,2147763017,2148277357,78,6,14,24734
1352027308,5803,1075.0000000000000000,211.5852050781250000,525.2169799804688000,7.0885658264160160,38.2158012390136700,50,101,63,70,53,1772,2147437403,2147795328,2147586221,2147831396,2147303442,2147450203,2147764470,2148279049,117,6,14,10276
1352030908,5806,1068.0000000000000000,211.1112976074218800,524.9108886718750000,7.0982041358947750,38.2390708923339840,50,101,62,68,52,1772,2147438235,2147800310,2147583488,2147831707,2147307062,2147454016,2147764114,2148281069,1,6,14,50174
1352034508,5804,10.1999998092651370,210.3361053466797000,523.6207275390625000,7.1388111114501950,38.2608184814453100,50,105,62,69,53,1772,2147437348,2147797211,2147582838,2147833088,2147307949,2147453101,2147765622,2148279003,3383,6,14,30667
1352036455,5804,11.8999996185302730,210.7371978759765600,523.8425292968750000,7.1318278312683105,38.2408714294433600,50,100,63,70,53,1773,2147438089,2147794432,2147583168,2147831945,2147304274,2147455680,2147765339,2148279917,385,6,14,23934
